"Timestamp","TZ","WindDir_Mean (deg)","WindSpd_Mean (km/h)","WindSpd_Min (km/h)","WindSpd_Max (km/h)","Temp_Mean (deg)","RH_Mean (%)","MSLP_Mean (hPa)","Rain_Acc (mm)","Rain_Intensity (mm/h)","Hail_Acc (hits/cm2)","Hail_Intensity (hits/cm2hr)","Solar_Mean (W/m2)"
2020/11/18 00:00:00.006,n,146,14.4,11.52,17.64,22.6,61.7,1019.72,0,0,0,0,0.021782
2020/11/18 00:01:00.000,n,144,7.2,5.4,8.64,22.6,61.8,1019.72,0,0,0,0,0.026093
2020/11/18 00:02:00.001,n,158,2.16,0.36,4.32,22.6,61.9,1019.72,0,0,0,0,0.024338
2020/11/18 00:03:00.000,n,131,11.88,10.08,14.4,22.6,61.6,1019.62,0,0,0,0,0.023499
2020/11/18 00:04:00.000,n,155,10.08,8.28,11.16,22.6,61.8,1019.72,0,0,0,0,0.024338
2020/11/18 00:05:00.000,n,156,12.6,12.24,13.32,22.6,61.8,1019.72,0,0,0,0,0.026093
2020/11/18 00:06:00.006,n,104,6.12,5.04,7.2,22.6,61.9,1019.62,0,0,0,0,0.019989
2020/11/18 00:07:00.003,n,182,9,7.92,10.08,22.6,61.9,1019.72,0,0,0,0,0.026093
2020/11/18 00:08:00.000,n,124,5.4,4.32,6.84,22.6,61.9,1019.72,0,0,0,0,0.029564
2020/11/18 00:09:00.014,n,151,14.4,12.96,15.84,22.6,61.9,1019.62,0,0,0,0,0.024338
2020/11/18 00:10:00.000,n,98,6.48,5.4,7.56,22.6,61.9,1019.72,0,0,0,0,0.020866
2020/11/18 00:11:00.000,n,156,12.96,12.6,13.68,22.6,61.8,1019.72,0,0,0,0,0.021782
2020/11/18 00:12:00.000,n,187,8.28,7.2,9,22.6,61.9,1019.72,0,0,0,0,0.020866
2020/11/18 00:13:00.002,n,182,5.76,4.68,7.56,22.6,61.9,1019.62,0,0,0,0,0.01915
2020/11/18 00:14:00.000,n,149,7.56,6.48,7.92,22.6,61.9,1019.62,0,0,0,0,0.030479
2020/11/18 00:15:00.000,n,154,11.16,9.72,12.96,22.6,61.9,1019.62,0,0,0,0,0.031319
2020/11/18 00:16:00.009,n,191,9.36,8.64,10.440002,22.6,62,1019.62,0,0,0,0,0.033951
2020/11/18 00:17:00.006,n,147,6.84,5.76,8.28,22.6,62.1,1019.62,0,0,0,0,0.02697
2020/11/18 00:18:00.003,n,189,10.8,9.72,11.16,22.5,62,1019.62,0,0,0,0,0.035667
2020/11/18 00:19:00.000,n,173,7.92,6.12,9.36,22.5,62,1019.72,0,0,0,0,0.032196
2020/11/18 00:20:00.000,n,133,9.72,7.56,11.52,22.5,62.1,1019.72,0,0,0,0,0.035667
2020/11/18 00:21:00.000,n,176,4.68,3.6,6.12,22.5,62.2,1019.72,0,0,0,0,0.032196
2020/11/18 00:22:00.000,n,167,6.48,5.76,8.28,22.5,62.1,1019.62,0,0,0,0,0.034828
2020/11/18 00:23:00.005,n,178,4.68,0.72,6.12,22.5,62.2,1019.62,0,0,0,0,0.034828
2020/11/18 00:24:00.002,n,152,7.92,5.04,10.08,22.5,62.1,1019.62,0,0,0,0,0.032196
2020/11/18 00:25:00.000,n,205,2.88,1.44,4.32,22.5,62.2,1019.52,0,0,0,0,0.033951
2020/11/18 00:26:00.014,n,141,11.88,5.4,15.48,22.5,62.1,1019.52,0,0,0,0,0.034828
2020/11/18 00:27:00.011,n,161,13.32,11.52,14.76,22.5,62.1,1019.52,0,0,0,0,0.033951
2020/11/18 00:28:00.000,n,163,8.64,6.12,10.440002,22.5,62.1,1019.52,0,0,0,0,0.034828
2020/11/18 00:29:00.000,n,142,8.64,7.92,9.72,22.5,62.2,1019.42,0,0,0,0,0.032196
2020/11/18 00:30:00.003,n,139,14.76,12.24,16.56,22.5,62.1,1019.42,0,0,0,0,0.030479
2020/11/18 00:31:00.000,n,192,4.32,1.44,7.92,22.5,62.2,1019.42,0,0,0,0,0.033073
2020/11/18 00:32:00.000,n,146,11.88,11.16,12.6,22.5,62.4,1019.42,0,0,0,0,0.033073
2020/11/18 00:33:00.010,n,139,9,7.56,10.440002,22.5,62.3,1019.32,0,0,0,0,0.027885
2020/11/18 00:34:00.008,n,173,1.44,0.36,2.52,22.5,62.5,1019.42,0,0,0,0,0.031319
2020/11/18 00:35:00.005,n,143,10.440002,7.2,13.32,22.5,62.4,1019.32,0,0,0,0,0.030479
2020/11/18 00:36:00.003,n,158,9.36,7.56,10.8,22.5,62.4,1019.32,0,0,0,0,0.025253
2020/11/18 00:37:00.000,n,147,12.6,11.88,13.68,22.5,62.4,1019.32,0,0,0,0,0.028725
2020/11/18 00:38:00.000,n,177,13.32,11.16,14.4,22.5,62.4,1019.32,0,0,0,0,0.031319
2020/11/18 00:39:00.000,n,150,6.48,5.4,7.56,22.5,62.5,1019.32,0,0,0,0,0.028725
2020/11/18 00:40:00.000,n,159,14.04,12.24,15.84,22.4,62.3,1019.22,0,0,0,0,0.027885
2020/11/18 00:41:00.005,n,161,13.32,12.24,14.04,22.4,62.5,1019.22,0,0,0,0,0.023499
2020/11/18 00:42:00.002,n,104,4.68,3.96,5.4,22.4,62.4,1019.12,0,0,0,0,0.029602
2020/11/18 00:43:00.000,n,144,16.2,15.12,16.919998,22.4,62.4,1019.12,0,0,0,0,0.027885
2020/11/18 00:44:00.012,n,226,3.6,2.52,5.4,22.4,62.6,1019.12,0,0,0,0,0.025253
2020/11/18 00:45:00.009,n,129,7.92,4.68,10.08,22.4,62.6,1019.12,0,0,0,0,0.021744
2020/11/18 00:46:00.000,n,152,6.48,5.4,7.56,22.4,62.7,1019.12,0,0,0,0,0.028725
2020/11/18 00:47:00.003,n,141,8.28,5.76,10.440002,22.4,62.6,1019.12,0,0,0,0,0.027885
2020/11/18 00:48:00.000,n,163,8.28,6.84,9.72,22.4,62.6,1019.12,0,0,0,0,0.02697
2020/11/18 00:49:00.000,n,149,8.64,7.56,10.8,22.4,62.5,1019.12,0,0,0,0,0.024376
2020/11/18 00:50:00.000,n,127,8.64,5.04,10.440002,22.4,62.6,1019.12,0,0,0,0,0.027885
2020/11/18 00:51:00.009,n,149,7.56,2.88,9.36,22.4,62.6,1019.02,0,0,0,0,0.028725
2020/11/18 00:52:00.006,n,149,15.48,13.68,16.919998,22.4,62.6,1019.12,0,0,0,0,0.02697
2020/11/18 00:53:00.003,n,138,7.56,3.24,12.24,22.4,62.6,1019.12,0,0,0,0,0.027885
2020/11/18 00:54:00.000,n,141,17.28,15.48,18.72,22.4,62.6,1019.12,0,0,0,0,0.024376
2020/11/18 00:55:00.000,n,153,14.04,13.68,14.4,22.4,62.6,1019.12,0,0,0,0,0.025253
2020/11/18 00:56:00.000,n,131,6.12,5.04,7.2,22.4,62.8,1019.22,0,0,0,0,0.025253
2020/11/18 00:57:00.000,n,161,5.04,3.96,5.76,22.4,62.7,1019.12,0,0,0,0,0.022659
2020/11/18 00:58:00.005,n,154,11.88,11.16,12.6,22.4,62.7,1019.12,0,0,0,0,0.025253
2020/11/18 00:59:00.002,n,124,5.04,4.32,5.76,22.4,62.7,1019.12,0,0,0,0,0.024376
2020/11/18 01:00:00.000,n,195,4.32,2.52,6.48,22.4,62.8,1019.22,0,0,0,0,0.026093
2020/11/18 01:01:00.012,n,171,9.72,9,10.08,22.4,62.9,1019.12,0,0,0,0,0.023499
2020/11/18 01:02:00.009,n,274,3.96,2.88,4.32,22.4,63,1019.22,0,0,0,0,0.026093
2020/11/18 01:03:00.006,n,192,4.32,3.24,5.04,22.4,63.1,1019.22,0,0,0,0,0.024376
2020/11/18 01:04:00.000,n,176,5.04,3.96,6.84,22.4,63,1019.22,0,0,0,0,0.028725
2020/11/18 01:05:00.000,n,221,1.08,1.08,1.44,22.4,63.1,1019.22,0,0,0,0,0.023499
2020/11/18 01:06:00.000,n,170,2.52,2.16,2.88,22.4,63.2,1019.22,0,0,0,0,0.024376
2020/11/18 01:07:00.000,n,200,2.88,2.52,3.24,22.4,63.2,1019.32,0,0,0,0,0.026093
2020/11/18 01:08:00.000,n,216,1.08,0,2.88,22.4,63.4,1019.32,0,0,0,0,0.026093
2020/11/18 01:09:00.006,n,194,1.08,1.08,1.08,22.4,63.5,1019.32,0,0,0,0,0.021744
2020/11/18 01:10:00.004,n,129,0.36,0.36,0.72,22.3,63.7,1019.32,0,0,0,0,0.020866
2020/11/18 01:11:00.001,n,201,2.88,2.88,2.88,22.4,63.6,1019.32,0,0,0,0,0.025253
2020/11/18 01:12:00.014,n,177,1.44,1.08,1.44,22.3,63.4,1019.32,0,0,0,0,0.024376
2020/11/18 01:13:00.000,n,282,2.16,1.8,2.88,22.3,64.1,1019.32,0,0,0,0,0.026093
2020/11/18 01:14:00.000,n,267,4.32,3.6,4.68,22.3,63.8,1019.32,0,0,0,0,0.025253
2020/11/18 01:15:00.000,n,286,4.32,3.6,5.76,22.3,64,1019.32,0,0,0,0,0.026093
2020/11/18 01:16:00.002,n,246,1.08,0.36,2.52,22.3,63.9,1019.32,0,0,0,0,0.024376
2020/11/18 01:17:00.000,n,114,1.8,1.08,2.52,22.3,63.5,1019.32,0,0,0,0,0.02697
2020/11/18 01:18:00.000,n,259,4.32,3.24,7.56,22.3,63.2,1019.32,0,0,0,0,0.022659
2020/11/18 01:19:00.010,n,203,1.8,1.44,2.52,22.3,63.7,1019.32,0,0,0,0,0.026093
2020/11/18 01:20:00.006,n,187,0.72,0.36,0.72,22.2,63.4,1019.32,0,0,0,0,0.027885
2020/11/18 01:21:00.004,n,255,3.96,2.52,4.32,22.2,63.3,1019.32,0,0,0,0,0.030479
2020/11/18 01:22:00.002,n,283,2.52,2.52,3.6,22.2,63.3,1019.32,0,0,0,0,0.026093
2020/11/18 01:23:00.000,n,137,2.16,0.72,2.88,22.2,63.4,1019.32,0,0,0,0,0.024376
2020/11/18 01:24:00.000,n,112,1.08,0.36,2.16,22.2,63.1,1019.32,0,0,0,0,0.030479
2020/11/18 01:25:00.000,n,160,0.36,0,1.08,22.2,64.300004,1019.32,0,0,0,0,0.029602
2020/11/18 01:26:00.007,n,277,5.4,4.32,7.2,22.2,63,1019.32,0,0,0,0,0.028725
2020/11/18 01:27:00.004,n,274,7.2,5.04,8.64,22.2,62.2,1019.32,0,0,0,0,0.029602
2020/11/18 01:28:00.001,n,194,2.52,2.16,2.52,22.2,62.4,1019.32,0,0,0,0,0.031319
2020/11/18 01:29:00.014,n,299,3.24,2.88,4.68,22.1,62.5,1019.32,0,0,0,0,0.030479
2020/11/18 01:30:00.011,n,322,2.16,1.44,2.88,22.1,62.4,1019.32,0,0,0,0,0.031319
2020/11/18 01:31:00.000,n,244,1.08,0.36,1.8,22.1,63,1019.32,0,0,0,0,0.030479
2020/11/18 01:32:00.000,n,244,1.44,1.08,2.16,22.1,63,1019.32,0,0,0,0,0.030479
2020/11/18 01:33:00.002,n,266,1.8,1.08,2.52,22.1,62,1019.32,0,0,0,0,0.032196
2020/11/18 01:34:00.000,n,260,1.8,0.36,2.88,22.1,62.4,1019.32,0,0,0,0,0.032196
2020/11/18 01:35:00.000,n,280,3.96,3.6,4.32,22.1,62.5,1019.32,0,0,0,0,0.031319
2020/11/18 01:36:00.009,n,177,2.88,2.52,3.6,22.1,62.5,1019.32,0,0,0,0,0.028725
2020/11/18 01:37:00.007,n,181,2.52,1.8,2.88,22.1,62.4,1019.32,0,0,0,0,0.033073
2020/11/18 01:38:00.005,n,219,4.32,3.6,5.04,22.1,62.1,1019.32,0,0,0,0,0.030479
2020/11/18 01:39:00.002,n,259,5.76,4.32,7.2,22.1,62.2,1019.32,0,0,0,0,0.032196
2020/11/18 01:40:00.000,n,239,3.24,3.24,3.6,22.1,62.3,1019.32,0,0,0,0,0.037422
2020/11/18 01:41:00.000,n,273,0.72,0,1.08,22.1,63.3,1019.22,0,0,0,0,0.032196
2020/11/18 01:42:00.000,n,267,1.8,1.44,2.16,22.1,62.1,1019.22,0,0,0,0,0.033073
2020/11/18 01:43:00.000,n,227,2.88,2.52,3.24,22.1,62,1019.32,0,0,0,0,0.033073
2020/11/18 01:44:00.005,n,276,3.6,2.52,3.96,22.1,63.9,1019.22,0,0,0,0,0.032196
2020/11/18 01:45:00.002,n,262,3.24,2.16,3.96,22.1,63.8,1019.22,0,0,0,0,0.033073
2020/11/18 01:46:00.000,n,200,4.68,3.96,5.04,22.1,62.2,1019.22,0,0,0,0,0.033951
2020/11/18 01:47:00.013,n,179,1.8,1.08,2.88,22,62,1019.22,0,0,0,0,0.033073
2020/11/18 01:48:00.010,n,281,3.24,1.8,4.32,22,63.5,1019.32,0,0,0,0,0.030479
2020/11/18 01:49:00.000,n,252,4.68,3.6,5.4,22,62.2,1019.32,0,0,0,0,0.034828
2020/11/18 01:50:00.000,n,174,3.6,1.8,5.04,22,62.1,1019.32,0,0,0,0,0.033951
2020/11/18 01:51:00.000,n,193,4.68,3.96,5.76,22,62.1,1019.32,0,0,0,0,0.029602
2020/11/18 01:52:00.000,n,234,0.72,0.72,1.08,22,62.2,1019.32,0,0,0,0,0.033951
2020/11/18 01:53:00.000,n,187,3.96,3.24,5.4,22,62.3,1019.32,0,0,0,0,0.036545
2020/11/18 01:54:00.008,n,182,7.2,6.84,7.92,22,62.1,1019.32,0,0,0,0,0.036545
2020/11/18 01:55:00.005,n,206,3.6,1.8,4.32,22,62.3,1019.32,0,0,0,0,0.033073
2020/11/18 01:56:00.002,n,229,2.16,1.44,2.88,22,62.4,1019.32,0,0,0,0,0.033951
2020/11/18 01:57:00.015,n,195,5.04,4.32,6.12,22,62.5,1019.32,0,0,0,0,0.029602
2020/11/18 01:58:00.000,n,209,5.76,5.04,6.84,22,62.4,1019.32,0,0,0,0,0.032196
2020/11/18 01:59:00.000,n,262,1.8,1.44,2.16,22,62.4,1019.32,0,0,0,0,0.032196
2020/11/18 02:00:00.000,n,175,7.92,6.48,10.08,22,62.2,1019.32,0,0,0,0,0.032196
2020/11/18 02:01:00.005,n,326,2.88,1.8,3.6,22,62.9,1019.22,0,0,0,0,0.032196
2020/11/18 02:02:00.002,n,199,4.32,3.6,4.68,22,62.5,1019.22,0,0,0,0,0.031319
2020/11/18 02:03:00.000,n,244,2.16,1.8,2.52,22,62.5,1019.22,0,0,0,0,0.032196
2020/11/18 02:04:00.000,n,167,6.48,5.76,7.2,22,62.4,1019.22,0,0,0,0,0.031319
2020/11/18 02:05:00.011,n,177,10.08,9.72,11.16,22,62.3,1019.22,0,0,0,0,0.036545
2020/11/18 02:06:00.008,n,187,3.6,3.24,3.96,22,62.5,1019.22,0,0,0,0,0.032196
2020/11/18 02:07:00.000,n,176,6.84,6.48,7.56,22,62.4,1019.12,0,0,0,0,0.035667
2020/11/18 02:08:00.002,n,192,5.04,4.32,5.76,21.9,62.6,1019.22,0,0,0,0,0.033951
2020/11/18 02:09:00.000,n,207,6.48,6.12,6.48,21.9,62.5,1019.22,0,0,0,0,0.033073
2020/11/18 02:10:00.000,n,237,5.04,4.32,5.04,21.9,62.7,1019.22,0,0,0,0,0.034828
2020/11/18 02:11:00.000,n,68,2.52,0.72,3.96,21.9,63.9,1019.22,0,0,0,0,0.032196
2020/11/18 02:12:00.007,n,230,2.88,2.52,3.24,22,63.1,1019.22,0,0,0,0,0.033951
2020/11/18 02:13:00.005,n,155,4.32,3.6,5.04,22,62.5,1019.22,0,0,0,0,0.035667
2020/11/18 02:14:00.003,n,133,1.08,0.36,2.52,21.9,62.6,1019.32,0,0,0,0,0.032196
2020/11/18 02:15:00.000,n,152,9,7.56,10.440002,21.9,62.2,1019.22,0,0,0,0,0.0383
2020/11/18 02:16:00.000,n,223,5.76,5.04,6.48,21.9,62.3,1019.32,0,0,0,0,0.037422
2020/11/18 02:17:00.000,n,186,5.4,4.68,5.76,21.9,62.5,1019.32,0,0,0,0,0.033073
2020/11/18 02:18:00.000,n,153,2.88,1.08,4.68,21.9,62.3,1019.32,0,0,0,0,0.029602
2020/11/18 02:19:00.005,n,224,4.32,3.6,5.04,21.9,62.5,1019.32,0,0,0,0,0.031319
2020/11/18 02:20:00.002,n,181,1.08,0.36,2.16,21.9,62.7,1019.32,0,0,0,0,0.033951
2020/11/18 02:21:00.000,n,170,4.68,3.96,5.04,21.9,62.4,1019.32,0,0,0,0,0.030479
2020/11/18 02:22:00.000,n,148,1.44,0.36,2.16,21.9,62.4,1019.32,0,0,0,0,0.034828
2020/11/18 02:23:00.011,n,312,1.8,1.08,2.52,21.9,63.1,1019.42,0,0,0,0,0.030479
2020/11/18 02:24:00.008,n,176,7.56,7.2,8.28,21.9,62.3,1019.42,0,0,0,0,0.033073
2020/11/18 02:25:00.000,n,316,5.4,1.44,6.12,21.9,63.6,1019.42,0,0,0,0,0.034828
2020/11/18 02:26:00.002,n,339,1.8,1.08,2.16,22,63.9,1019.42,0,0,0,0,0.031319
2020/11/18 02:27:00.000,n,259,3.24,2.52,3.96,22,63.1,1019.42,0,0,0,0,0.029602
2020/11/18 02:28:00.000,n,289,3.24,1.44,4.68,22,64.199996,1019.42,0,0,0,0,0.032196
2020/11/18 02:29:00.000,n,155,0.36,0.36,0.72,22,63.8,1019.42,0,0,0,0,0.035667
2020/11/18 02:30:00.007,n,161,2.88,1.8,3.96,22,62.5,1019.42,0,0,0,0,0.036545
2020/11/18 02:31:00.004,n,165,1.08,0.72,1.8,21.9,62.4,1019.42,0,0,0,0,0.030479
2020/11/18 02:32:00.002,n,139,3.96,1.8,5.04,21.9,62.4,1019.42,0,0,0,0,0.027885
2020/11/18 02:33:00.015,n,211,5.04,4.68,5.76,21.9,62.5,1019.42,0,0,0,0,0.033073
2020/11/18 02:34:00.000,n,262,5.4,5.4,5.4,21.9,62.5,1019.42,0,0,0,0,0.031319
2020/11/18 02:35:00.000,n,184,4.68,3.24,6.12,21.9,62.6,1019.42,0,0,0,0,0.031319
2020/11/18 02:36:00.000,n,147,4.32,3.24,4.68,21.9,62.5,1019.42,0,0,0,0,0.033951
2020/11/18 02:37:00.005,n,217,3.96,2.52,4.68,21.9,62.6,1019.42,0,0,0,0,0.030479
2020/11/18 02:38:00.002,n,156,2.88,1.8,3.24,21.9,62.7,1019.42,0,0,0,0,0.033951
2020/11/18 02:39:00.000,n,190,3.6,3.24,4.32,21.9,62.7,1019.42,0,0,0,0,0.033073
2020/11/18 02:40:00.012,n,177,9.36,7.92,11.88,21.9,62.7,1019.42,0,0,0,0,0.033951
2020/11/18 02:41:00.009,n,167,7.56,7.2,8.28,21.8,62.6,1019.42,0,0,0,0,0.028725
2020/11/18 02:42:00.007,n,155,7.92,7.2,9,21.8,62.7,1019.42,0,0,0,0,0.032196
2020/11/18 02:43:00.000,n,168,2.16,2.16,2.52,21.8,62.7,1019.42,0,0,0,0,0.028725
2020/11/18 02:44:00.000,n,208,0.72,0,1.44,21.8,62.9,1019.42,0,0,0,0,0.029602
2020/11/18 02:45:00.000,n,180,6.48,5.76,6.84,21.8,62.8,1019.42,0,0,0,0,0.030479
2020/11/18 02:46:00.000,n,173,3.6,3.24,5.04,21.8,63,1019.52,0,0,0,0,0.033951
2020/11/18 02:47:00.000,n,200,5.76,5.4,6.12,21.8,63,1019.52,0,0,0,0,0.029602
2020/11/18 02:48:00.008,n,201,4.68,4.32,4.68,21.8,63.1,1019.52,0,0,0,0,0.031319
2020/11/18 02:49:00.006,n,232,3.24,2.16,3.96,21.8,63.4,1019.52,0,0,0,0,0.027885
2020/11/18 02:50:00.003,n,185,2.52,1.44,3.96,21.8,63.1,1019.52,0,0,0,0,0.031319
2020/11/18 02:51:00.017,n,154,1.44,0.72,2.52,21.8,63.1,1019.52,0,0,0,0,0.033073
2020/11/18 02:52:00.000,n,201,2.88,2.52,3.96,21.8,63.2,1019.52,0,0,0,0,0.031319
2020/11/18 02:53:00.000,n,216,3.96,3.6,5.04,21.8,63.3,1019.52,0,0,0,0,0.028725
2020/11/18 02:54:00.000,n,190,7.92,7.56,8.28,21.8,63,1019.52,0,0,0,0,0.030479
2020/11/18 02:55:00.006,n,185,6.48,2.88,10.08,21.8,63,1019.52,0,0,0,0,0.029602
2020/11/18 02:56:00.004,n,175,5.76,4.32,6.48,21.8,63,1019.52,0,0,0,0,0.029602
2020/11/18 02:57:00.000,n,251,2.52,1.8,3.6,21.8,63.2,1019.52,0,0,0,0,0.029602
2020/11/18 02:58:00.000,n,174,3.6,3.24,3.96,21.8,63.1,1019.52,0,0,0,0,0.028725
2020/11/18 02:59:00.012,n,181,3.24,2.52,3.24,21.8,63.2,1019.52,0,0,0,0,0.029602
2020/11/18 03:00:00.009,n,177,9.72,8.64,10.440002,21.8,62.9,1019.52,0,0,0,0,0.029602
2020/11/18 03:01:00.000,n,140,4.68,0.72,6.48,21.8,63.1,1019.62,0,0,0,0,0.027885
2020/11/18 03:02:00.003,n,155,6.48,5.4,7.56,21.8,63,1019.62,0,0,0,0,0.029602
2020/11/18 03:03:00.001,n,196,2.16,1.08,3.96,21.8,63.1,1019.62,0,0,0,0,0.026093
2020/11/18 03:04:00.000,n,182,3.24,1.08,5.4,21.8,63.1,1019.62,0,0,0,0,0.029602
2020/11/18 03:05:00.000,n,166,4.32,3.24,5.4,21.8,63.2,1019.62,0,0,0,0,0.026093
2020/11/18 03:06:00.008,n,270,3.96,3.24,4.68,21.8,63.2,1019.62,0,0,0,0,0.033951
2020/11/18 03:07:00.005,n,190,2.16,1.08,3.96,21.8,63.2,1019.72,0,0,0,0,0.030479
2020/11/18 03:08:00.002,n,142,1.8,0.72,2.52,21.8,63.1,1019.72,0,0,0,0,0.027885
2020/11/18 03:09:00.000,n,155,6.48,6.12,6.84,21.8,63,1019.72,0,0,0,0,0.025253
2020/11/18 03:10:00.000,n,150,4.32,3.96,5.04,21.8,63,1019.72,0,0,0,0,0.025253
2020/11/18 03:11:00.000,n,180,7.2,6.48,8.28,21.8,63.1,1019.72,0,0,0,0,0.026093
2020/11/18 03:12:00.000,n,206,5.76,5.04,6.12,21.8,63.3,1019.82,0,0,0,0,0.029602
2020/11/18 03:13:00.005,n,189,7.2,6.48,8.28,21.8,63.1,1019.82,0,0,0,0,0.023499
2020/11/18 03:14:00.001,n,172,9.36,7.92,10.08,21.7,63,1019.72,0,0,0,0,0.027885
2020/11/18 03:15:00.000,n,134,8.28,6.84,8.64,21.7,63,1019.72,0,0,0,0,0.029602
2020/11/18 03:16:00.012,n,236,2.52,1.8,2.88,21.7,63.2,1019.82,0,0,0,0,0.027885
2020/11/18 03:17:00.009,n,167,9.36,8.28,10.440002,21.7,63.2,1019.82,0,0,0,0,0.026093
2020/11/18 03:18:00.006,n,182,4.68,3.96,5.4,21.7,63.1,1019.82,0,0,0,0,0.022659
2020/11/18 03:19:00.000,n,222,3.96,3.24,4.68,21.7,63.2,1019.82,0,0,0,0,0.028725
2020/11/18 03:20:00.000,n,178,6.48,6.12,7.2,21.7,63.3,1019.82,0,0,0,0,0.029602
2020/11/18 03:21:00.000,n,193,4.68,4.32,5.04,21.7,63.3,1019.82,0,0,0,0,0.028725
2020/11/18 03:22:00.000,n,174,9.36,8.64,10.440002,21.7,63.2,1019.82,0,0,0,0,0.029602
2020/11/18 03:23:00.000,n,183,3.96,2.88,4.68,21.7,63.2,1019.72,0,0,0,0,0.028725
2020/11/18 03:24:00.006,n,190,5.4,3.6,7.92,21.7,63.3,1019.72,0,0,0,0,0.026093
2020/11/18 03:25:00.003,n,192,4.68,3.96,5.4,21.7,63.4,1019.72,0,0,0,0,0.025253
2020/11/18 03:26:00.000,n,222,0.72,0,2.16,21.7,63.3,1019.72,0,0,0,0,0.026093
2020/11/18 03:27:00.014,n,164,4.68,4.32,5.4,21.7,63.3,1019.72,0,0,0,0,0.028725
2020/11/18 03:28:00.000,n,155,2.52,2.16,2.88,21.7,63.5,1019.72,0,0,0,0,0.022659
2020/11/18 03:29:00.000,n,179,6.84,6.48,7.2,21.7,63.5,1019.72,0,0,0,0,0.025253
2020/11/18 03:30:00.005,n,203,3.6,3.6,3.96,21.7,63.6,1019.72,0,0,0,0,0.024376
2020/11/18 03:31:00.002,n,223,2.52,0.36,4.68,21.7,64.4,1019.72,0,0,0,0,0.02697
2020/11/18 03:32:00.000,n,269,3.24,1.8,4.68,21.7,63.8,1019.72,0,0,0,0,0.023499
2020/11/18 03:33:00.000,n,151,5.4,2.52,7.2,21.7,63.3,1019.72,0,0,0,0,0.020866
2020/11/18 03:34:00.009,n,164,2.52,1.8,3.6,21.7,63.6,1019.82,0,0,0,0,0.020027
2020/11/18 03:35:00.006,n,171,1.44,1.08,2.16,21.7,63.5,1019.82,0,0,0,0,0.024376
2020/11/18 03:36:00.003,n,211,2.88,2.52,3.24,21.7,63.5,1019.82,0,0,0,0,0.023499
2020/11/18 03:37:00.001,n,275,2.88,1.8,3.6,21.7,63.9,1019.82,0,0,0,0,0.022659
2020/11/18 03:38:00.000,n,258,1.8,1.44,2.16,21.7,63.5,1019.82,0,0,0,0,0.026093
2020/11/18 03:39:00.000,n,7,0.72,0,1.8,21.7,63.6,1019.92,0,0,0,0,0.023499
2020/11/18 03:40:00.000,n,147,6.48,5.4,7.2,21.7,63.1,1019.92,0,0,0,0,0.022659
2020/11/18 03:41:00.005,n,213,1.44,0.36,3.24,21.7,63.3,1019.92,0,0,0,0,0.024376
2020/11/18 03:42:00.002,n,231,3.24,2.88,3.6,21.7,63.4,1019.92,0,0,0,0,0.022659
2020/11/18 03:43:00.000,n,191,3.6,2.88,3.96,21.7,63,1019.92,0,0,0,0,0.020027
2020/11/18 03:44:00.013,n,158,4.68,1.08,6.48,21.7,63,1019.92,0,0,0,0,0.020027
2020/11/18 03:45:00.010,n,174,5.04,4.68,5.4,21.6,63,1019.92,0,0,0,0,0.022659
2020/11/18 03:46:00.000,n,154,2.88,2.52,3.96,21.6,63.2,1019.92,0,0,0,0,0.022659
2020/11/18 03:47:00.000,n,191,2.16,1.44,3.24,21.6,63.2,1019.92,0,0,0,0,0.022659
2020/11/18 03:48:00.001,n,98,1.08,0.36,2.16,21.6,63.3,1019.92,0,0,0,0,0.01915
2020/11/18 03:49:00.000,n,144,5.76,5.04,6.48,21.7,63.2,1019.92,0,0,0,0,0.024376
2020/11/18 03:50:00.000,n,188,3.24,2.52,3.6,21.6,63.1,1019.92,0,0,0,0,0.020866
2020/11/18 03:51:00.008,n,142,2.52,1.44,3.24,21.6,63.3,1019.92,0,0,0,0,0.024376
2020/11/18 03:52:00.005,n,183,5.76,5.4,6.12,21.6,62.8,1019.92,0,0,0,0,0.024376
2020/11/18 03:53:00.003,n,162,3.96,2.16,6.84,21.6,63.1,1019.92,0,0,0,0,0.026093
2020/11/18 03:54:00.000,n,182,5.76,4.32,6.48,21.6,63.4,1020.02,0,0,0,0,0.025253
2020/11/18 03:55:00.000,n,182,5.76,5.04,6.48,21.6,63.1,1020.02,0,0,0,0,0.023499
2020/11/18 03:56:00.000,n,196,3.24,2.88,3.6,21.6,63.1,1020.02,0,0,0,0,0.020866
2020/11/18 03:57:00.000,n,175,6.84,6.48,6.84,21.6,63.1,1020.02,0,0,0,0,0.01915
2020/11/18 03:58:00.005,n,208,4.32,1.8,5.76,21.6,63.1,1020.12,0,0,0,0,0.024376
2020/11/18 03:59:00.003,n,175,3.24,1.8,4.32,21.6,63.1,1020.12,0,0,0,0,0.023499
2020/11/18 04:00:00.000,n,170,7.56,6.84,7.92,21.6,63.1,1020.12,0,0,0,0,0.020027
2020/11/18 04:01:00.013,n,198,7.56,7.2,7.56,21.6,63.2,1020.12,0,0,0,0,0.029602
2020/11/18 04:02:00.010,n,180,7.92,7.2,9.36,21.6,63,1020.12,0,0,0,0,0.033073
2020/11/18 04:03:00.006,n,184,3.96,3.24,5.04,21.6,63.3,1020.12,0,0,0,0,0.035706
2020/11/18 04:04:00.000,n,200,4.32,3.96,4.32,21.6,63.3,1020.22,0,0,0,0,0.033913
2020/11/18 04:05:00.001,n,162,3.24,1.8,4.68,21.6,63.4,1020.22,0,0,0,0,0.033913
2020/11/18 04:06:00.000,n,182,3.6,3.24,3.96,21.6,63.1,1020.22,0,0,0,0,0.032196
2020/11/18 04:07:00.000,n,195,5.4,3.96,6.12,21.6,63.1,1020.22,0,0,0,0,0.034828
2020/11/18 04:08:00.009,n,236,1.44,0.72,2.52,21.6,63.2,1020.22,0,0,0,0,0.033073
2020/11/18 04:09:00.006,n,170,7.92,7.2,9.36,21.6,63.1,1020.22,0,0,0,0,0.033073
2020/11/18 04:10:00.003,n,209,6.12,5.76,6.12,21.6,63.1,1020.32,0,0,0,0,0.033913
2020/11/18 04:11:00.000,n,188,2.52,2.16,2.88,21.6,63.1,1020.32,0,0,0,0,0.033073
2020/11/18 04:12:00.013,n,223,2.52,1.08,3.24,21.5,63.1,1020.32,0,0,0,0,0.035706
2020/11/18 04:13:00.000,n,137,1.08,0,1.44,21.6,63.5,1020.22,0,0,0,0,0.035706
2020/11/18 04:14:00.000,n,189,5.4,4.32,5.76,21.6,63.1,1020.32,0,0,0,0,0.030479
2020/11/18 04:15:00.000,n,177,2.52,2.16,2.88,21.6,63.2,1020.22,0,0,0,0,0.0383
2020/11/18 04:16:00.003,n,223,2.16,0.72,3.6,21.6,63.3,1020.22,0,0,0,0,0.036545
2020/11/18 04:17:00.000,n,184,4.68,4.32,5.4,21.6,63.3,1020.22,0,0,0,0,0.040894
2020/11/18 04:18:00.000,n,172,4.68,3.96,6.12,21.6,63.3,1020.22,0,0,0,0,0.037422
2020/11/18 04:19:00.012,n,197,2.16,1.08,3.24,21.6,63.3,1020.22,0,0,0,0,0.040054
2020/11/18 04:20:00.009,n,227,1.8,1.44,1.8,21.6,63.2,1020.32,0,0,0,0,0.037422
2020/11/18 04:21:00.006,n,171,5.4,4.68,6.12,21.6,63.1,1020.32,0,0,0,0,0.042648
2020/11/18 04:22:00.000,n,204,2.16,2.16,2.16,21.6,63,1020.32,0,0,0,0,0.044365
2020/11/18 04:23:00.001,n,179,5.4,5.04,5.76,21.6,62.9,1020.32,0,0,0,0,0.043488
2020/11/18 04:24:00.000,n,193,7.92,7.2,8.64,21.6,62.9,1020.32,0,0,0,0,0.043488
2020/11/18 04:25:00.000,n,190,4.68,3.24,5.4,21.5,63,1020.32,0,0,0,0,0.046997
2020/11/18 04:26:00.000,n,205,3.96,3.6,5.04,21.5,63.2,1020.32,0,0,0,0,0.051346
2020/11/18 04:27:00.006,n,184,6.48,5.76,7.92,21.5,63,1020.32,0,0,0,0,0.051346
2020/11/18 04:28:00.003,n,223,6.12,5.4,6.48,21.5,62.9,1020.32,0,0,0,0,0.060043
2020/11/18 04:29:00.001,n,171,2.16,1.8,2.88,21.5,63,1020.42,0,0,0,0,0.064392
2020/11/18 04:30:00.015,n,248,1.8,1.08,2.52,21.5,63.2,1020.42,0,0,0,0,0.070496
2020/11/18 04:31:00.000,n,286,3.6,2.88,4.32,21.5,63.8,1020.42,0,0,0,0,0.077438
2020/11/18 04:32:00.000,n,222,3.6,2.52,4.32,21.5,63.1,1020.52,0,0,0,0,0.091362
2020/11/18 04:33:00.000,n,170,6.48,5.76,7.56,21.5,63.1,1020.52,0,0,0,0,0.10006
2020/11/18 04:34:00.004,n,164,10.08,9,10.8,21.5,62.9,1020.52,0,0,0,0,0.121803
2020/11/18 04:35:00.001,n,213,3.6,2.88,3.6,21.6,63.1,1020.52,0,0,0,0,0.147896
2020/11/18 04:36:00.000,n,216,6.12,5.04,6.84,21.6,62.8,1020.52,0,0,0,0,0.179214
2020/11/18 04:37:00.012,n,257,3.96,2.52,5.4,21.6,63.6,1020.52,0,0,0,0,0.216599
2020/11/18 04:38:00.009,n,246,2.52,1.44,2.88,21.6,63.1,1020.62,0,0,0,0,0.264397
2020/11/18 04:39:00.007,n,169,6.84,6.12,7.2,21.6,62.7,1020.62,0,0,0,0,0.313072
2020/11/18 04:40:00.000,n,313,0.72,0.36,1.44,21.6,62.7,1020.62,0,0,0,0,0.353889
2020/11/18 04:41:00.000,n,332,2.52,1.44,2.88,21.6,64.300004,1020.72,0,0,0,0,0.404282
2020/11/18 04:42:00.000,n,210,1.8,1.08,2.52,21.6,63.3,1020.72,0,0,0,0,0.467644
2020/11/18 04:43:00.000,n,166,7.56,6.48,8.64,21.6,62.5,1020.72,0,0,0,0,0.5579
2020/11/18 04:44:00.008,n,207,8.28,7.92,9.36,21.6,62.2,1020.72,0,0,0,0,0.65052
2020/11/18 04:45:00.006,n,193,3.24,2.88,3.96,21.6,62.4,1020.72,0,0,0,0,0.749741
2020/11/18 04:46:00.003,n,172,7.56,6.84,7.92,21.6,62.4,1020.72,0,0,0,0,0.928917
2020/11/18 04:47:00.000,n,148,3.24,1.44,5.4,21.6,62.4,1020.72,0,0,0,0,1.202545
2020/11/18 04:48:00.013,n,195,4.68,4.32,5.4,21.5,62.7,1020.72,0,0,0,0,1.475754
2020/11/18 04:49:00.000,n,158,3.6,2.16,5.4,21.5,62.8,1020.72,0,0,0,0,1.666298
2020/11/18 04:50:00.000,n,137,6.48,5.76,7.56,21.5,62.4,1020.72,0,0,0,0,1.790886
2020/11/18 04:51:00.000,n,187,11.16,10.08,11.52,21.5,62.4,1020.72,0,0,0,0,1.929245
2020/11/18 04:52:00.002,n,160,6.48,5.04,8.64,21.5,62.3,1020.82,0,0,0,0,2.095642
2020/11/18 04:53:00.000,n,136,11.88,10.8,12.6,21.6,62,1020.82,0,0,0,0,2.158051
2020/11/18 04:54:00.000,n,161,6.84,5.76,7.56,21.6,62.2,1020.82,0,0,0,0,2.534676